,,Stat1,,Stat2,,Stat3,,Stat4,,Wind1,,Wind1,
time,status,PR1M_SUM,status,RH1M_AVG,status,SR1M_AVG,status,TA1M_AVG,status,W1dAve1m,status,W1sAve1m,
1999-12-16, 00:01:00,VALID,0,VALID,98.6282,VALID,-0.0849042,VALID,17.4654,VALID,195,VALID,0.746916,
1999-12-16, 00:02:00,VALID,0,VALID,98.6091,VALID,-0.0679233,VALID,17.4493,VALID,193,VALID,0.717348,
1999-12-16, 00:03:00,VALID,0,VALID,98.6333,VALID,-0.0339617,VALID,17.4239,VALID,187,VALID,0.947115,
1999-12-16, 00:04:00,VALID,0,VALID,98.5939,VALID,-0.0169808,VALID,17.4137,VALID,194,VALID,1.03557,
1999-12-16, 00:05:01,VALID,0,VALID,98.4832,VALID,-0.0509425,VALID,17.4364,VALID,191,VALID,0.998355,
1999-12-16, 00:06:00,VALID,0,VALID,98.192,VALID,-0.0679233,VALID,17.4525,VALID,190,VALID,0.708934,
1999-12-16, 00:07:00,VALID,0,VALID,97.9377,VALID,-0.0339617,VALID,17.4557,VALID,186,VALID,0.671453,
1999-12-16, 00:08:00,VALID,0,VALID,97.9619,VALID,-0.0169808,VALID,17.4562,VALID,188,VALID,0.733803,
1999-12-16, 00:09:00,VALID,0,VALID,97.9377,VALID,-0.0169808,VALID,17.4525,VALID,191,VALID,0.738982,
1999-12-16, 00:10:00,VALID,0,VALID,97.9288,VALID,-0.0169808,VALID,17.423,VALID,190,VALID,0.612233,
1999-12-16, 00:11:00,VALID,0,VALID,97.9873,VALID,-0.0169808,VALID,17.4036,VALID,188,VALID,0.593961,
1999-12-16, 00:12:00,VALID,0,VALID,97.9364,VALID,-0.0169808,VALID,17.3877,VALID,187,VALID,0.492383,
1999-12-16, 00:13:00,VALID,0,VALID,97.8932,VALID,-0.0339617,VALID,17.3747,VALID,187,VALID,0.508018,
1999-12-16, 00:14:00,VALID,0,VALID,98.014,VALID,-0.0339617,VALID,17.3618,VALID,186,VALID,0.619141,
1999-12-16, 00:15:00,VALID,0,VALID,98.1285,VALID,-0.0339617,VALID,17.3618,VALID,191,VALID,0.787418,
1999-12-16, 00:16:01,VALID,0,VALID,98.2493,VALID,0,VALID,17.3812,VALID,192,VALID,0.939062,
1999-12-16, 00:17:01,VALID,0,VALID,98.2098,VALID,-0.0339617,VALID,17.4006,VALID,194,VALID,1.07237,
1999-12-16, 00:18:00,VALID,0,VALID,97.9949,VALID,-0.0169808,VALID,17.4329,VALID,197,VALID,1.00371,
1999-12-16, 00:19:00,VALID,0,VALID,97.7165,VALID,0,VALID,17.4687,VALID,198,VALID,0.746711,
1999-12-16, 00:20:00,VALID,0,VALID,97.4151,VALID,-0.0339617,VALID,17.4941,VALID,210,VALID,0.566602,
1999-12-16, 00:21:00,VALID,0,VALID,97.0501,VALID,-0.0339617,VALID,17.4911,VALID,213,VALID,0.70477,
1999-12-16, 00:22:00,VALID,0,VALID,97.0972,VALID,-0.0339617,VALID,17.4781,VALID,203,VALID,0.691992,
1999-12-16, 00:23:00,VALID,0,VALID,97.2002,VALID,-0.0679233,VALID,17.4585,VALID,188,VALID,0.677426,
1999-12-16, 00:24:00,VALID,0,VALID,97.1264,VALID,-0.0339617,VALID,17.4299,VALID,183,VALID,0.756445,
1999-12-16, 00:25:00,VALID,0,VALID,97.2879,VALID,-0.0339617,VALID,17.4204,VALID,188,VALID,0.701891,
1999-12-16, 00:26:00,VALID,0,VALID,97.2027,VALID,-0.0509425,VALID,17.3814,VALID,203,VALID,0.44707,
1999-12-16, 00:27:00,VALID,0,VALID,97.2943,VALID,0,VALID,17.3519,VALID,211,VALID,0.431743,
1999-12-16, 00:28:01,VALID,0,VALID,97.3935,VALID,0,VALID,17.3454,VALID,215,VALID,0.287109,
1999-12-16, 00:29:00,VALID,0,VALID,97.5511,VALID,-0.0169808,VALID,17.3362,VALID,205,VALID,0.524671,
1999-12-16, 00:30:00,VALID,0,VALID,97.6529,VALID,0,VALID,17.3392,VALID,199,VALID,0.213086,
1999-12-16, 00:31:00,VALID,0,VALID,97.368,VALID,0,VALID,17.2974,VALID,182,VALID,0.351357,
1999-12-16, 00:32:00,VALID,0,VALID,97.555,VALID,0,VALID,17.2746,VALID,181,VALID,0.46543,
1999-12-16, 00:33:00,VALID,0,VALID,97.4456,VALID,-0.0169808,VALID,17.2326,VALID,174,VALID,0.518298,
1999-12-16, 00:34:00,VALID,0,VALID,97.335,VALID,-0.0169808,VALID,17.1938,VALID,174,VALID,0.532031,
1999-12-16, 00:35:00,VALID,0,VALID,97.6847,VALID,-0.0509425,VALID,17.1938,VALID,173,VALID,0.564762,
1999-12-16, 00:36:00,VALID,0,VALID,97.8373,VALID,-0.0339617,VALID,17.2007,VALID,174,VALID,0.533203,
1999-12-16, 00:37:00,VALID,0,VALID,97.6669,VALID,-0.0339617,VALID,17.1682,VALID,195,VALID,0.392681,
1999-12-16, 00:38:01,VALID,0,VALID,97.602,VALID,-0.0339617,VALID,17.132,VALID,213,VALID,0.263086,
1999-12-16, 00:39:01,VALID,0,VALID,97.452,VALID,-0.0169808,VALID,17.1066,VALID,213,VALID,0.167558,
1999-12-16, 00:40:00,VALID,0,VALID,96.9179,VALID,-0.0509425,VALID,17.0583,VALID,212,VALID,0,
1999-12-16, 00:41:00,VALID,0,VALID,96.6674,VALID,-0.0679233,VALID,17.0163,VALID,206,VALID,0,
1999-12-16, 00:42:00,VALID,0,VALID,97.087,VALID,-0.0169808,VALID,16.9937,VALID,193,VALID,0,
1999-12-16, 00:43:00,VALID,0,VALID,97.4748,VALID,-0.0339617,VALID,16.9907,VALID,189,VALID,0,
1999-12-16, 00:44:00,VALID,0,VALID,97.4609,VALID,-0.0339617,VALID,16.9453,VALID,209,VALID,0,
1999-12-16, 00:45:00,VALID,0,VALID,97.5079,VALID,0,VALID,16.9188,VALID,210,VALID,0,
1999-12-16, 00:46:00,VALID,0,VALID,97.5473,VALID,-0.0169808,VALID,16.9323,VALID,210,VALID,0,
1999-12-16, 00:47:00,VALID,0,VALID,97.4977,VALID,0,VALID,16.945,VALID,210,VALID,0,
1999-12-16, 00:48:00,VALID,0,VALID,97.3032,VALID,0,VALID,16.9556,VALID,210,VALID,0,
1999-12-16, 00:49:01,VALID,0,VALID,96.8518,VALID,-0.0679233,VALID,16.9196,VALID,210,VALID,0,
1999-12-16, 00:50:01,VALID,0,VALID,96.3329,VALID,-0.0339617,VALID,16.8645,VALID,207,VALID,0,
1999-12-16, 00:51:00,VALID,0,VALID,96.1371,VALID,-0.0679233,VALID,16.8126,VALID,202,VALID,0,
1999-12-16, 00:52:00,VALID,0,VALID,96.4944,VALID,-0.0679233,VALID,16.8167,VALID,195,VALID,0,
1999-12-16, 00:53:00,VALID,0,VALID,97.0794,VALID,-0.0509425,VALID,16.8231,VALID,186,VALID,0,
1999-12-16, 00:54:00,VALID,0,VALID,97.2294,VALID,-0.101885,VALID,16.8171,VALID,185,VALID,0,
1999-12-16, 00:55:00,VALID,0,VALID,97.4507,VALID,-0.0849042,VALID,16.7977,VALID,185,VALID,0,
1999-12-16, 00:56:00,VALID,0,VALID,97.4621,VALID,-0.101885,VALID,16.788,VALID,185,VALID,0,
1999-12-16, 00:57:00,VALID,0,VALID,97.3095,VALID,-0.101885,VALID,16.7555,VALID,186,VALID,0,
1999-12-16, 00:58:00,VALID,0,VALID,97.3833,VALID,-0.0849042,VALID,16.7329,VALID,187,VALID,0,
1999-12-16, 00:59:00,VALID,0,VALID,97.2676,VALID,-0.101885,VALID,16.6969,VALID,187,VALID,0,
1999-12-16, 01:00:01,VALID,0,VALID,97.1951,VALID,-0.101885,VALID,16.6838,VALID,186,VALID,0,
1999-12-16, 01:01:01,VALID,0,VALID,97.0908,VALID,-0.0849042,VALID,16.6584,VALID,182,VALID,0,
1999-12-16, 01:02:00,VALID,0,VALID,97.0374,VALID,-0.0849042,VALID,16.6224,VALID,174,VALID,0.429102,
1999-12-16, 01:03:00,VALID,0,VALID,97.0896,VALID,-0.101885,VALID,16.5907,VALID,157,VALID,0.570724,
1999-12-16, 01:04:00,VALID,0,VALID,97.424,VALID,-0.0849042,VALID,16.594,VALID,155,VALID,0.558008,
1999-12-16, 01:05:00,VALID,0,VALID,97.8118,VALID,-0.101885,VALID,16.5938,VALID,171,VALID,0.578742,
1999-12-16, 01:06:00,VALID,0,VALID,97.8347,VALID,-0.101885,VALID,16.6037,VALID,193,VALID,0.35293,
1999-12-16, 01:07:00,VALID,0,VALID,97.9301,VALID,-0.0849042,VALID,16.5972,VALID,205,VALID,0.432155,
1999-12-16, 01:08:00,VALID,0,VALID,98.0445,VALID,-0.0679233,VALID,16.5841,VALID,212,VALID,0.43125,
1999-12-16, 01:09:00,VALID,0,VALID,98.2607,VALID,0.0169808,VALID,16.6151,VALID,184,VALID,0.641797,
1999-12-16, 01:10:00,VALID,0,VALID,98.5239,VALID,0,VALID,16.6539,VALID,175,VALID,0.708008,
1999-12-16, 01:11:00,VALID,0,VALID,98.8901,VALID,0,VALID,16.7284,VALID,176,VALID,0.675781,
1999-12-16, 01:12:01,VALID,0,VALID,98.8825,VALID,0,VALID,16.7639,VALID,179,VALID,0.736133,
1999-12-16, 01:13:00,VALID,0,VALID,99.1038,VALID,0.0339617,VALID,16.8315,VALID,188,VALID,0.775493,
1999-12-16, 01:14:00,VALID,0,VALID,98.7541,VALID,0,VALID,16.8255,VALID,215,VALID,0.557617,
1999-12-16, 01:15:00,VALID,0,VALID,98.5417,VALID,0.0169808,VALID,16.8096,VALID,223,VALID,0.605674,
1999-12-16, 01:16:00,VALID,0,VALID,98.5621,VALID,0.0169808,VALID,16.819,VALID,209,VALID,0.689062,
1999-12-16, 01:17:00,VALID,0,VALID,98.6841,VALID,0,VALID,16.8511,VALID,193,VALID,0.788857,
1999-12-16, 01:18:00,VALID,0,VALID,98.6384,VALID,0,VALID,16.8804,VALID,191,VALID,0.808398,
1999-12-16, 01:19:00,VALID,0,VALID,98.6689,VALID,0,VALID,16.9097,VALID,192,VALID,0.766653,
1999-12-16, 01:20:00,VALID,0,VALID,98.276,VALID,0,VALID,16.8839,VALID,193,VALID,0.574023,
1999-12-16, 01:21:00,VALID,0,VALID,98.0903,VALID,0.0339617,VALID,16.8511,VALID,197,VALID,0.489104,
1999-12-16, 01:22:01,VALID,0,VALID,98.2556,VALID,0.0339617,VALID,16.8738,VALID,205,VALID,0.331836,
1999-12-16, 01:23:00,VALID,0,VALID,98.2569,VALID,0.0169808,VALID,16.8673,VALID,189,VALID,0.404605,
1999-12-16, 01:24:00,VALID,0,VALID,98.0763,VALID,-0.0849042,VALID,16.8365,VALID,187,VALID,0.23418,
1999-12-16, 01:25:00,VALID,0,VALID,97.9949,VALID,-0.0849042,VALID,16.807,VALID,188,VALID,0.0501645,
1999-12-16, 01:26:00,VALID,0,VALID,97.986,VALID,-0.0849042,VALID,16.8009,VALID,192,VALID,0.133008,
1999-12-16, 01:27:00,VALID,0,VALID,98.2925,VALID,-0.101885,VALID,16.8203,VALID,205,VALID,0.36102,
1999-12-16, 01:28:00,VALID,0,VALID,98.6307,VALID,-0.0509425,VALID,16.8658,VALID,202,VALID,0.489258,
1999-12-16, 01:29:00,VALID,0,VALID,98.6549,VALID,-0.101885,VALID,16.8783,VALID,200,VALID,0.409334,
1999-12-16, 01:30:00,VALID,0,VALID,98.543,VALID,-0.101885,VALID,16.8589,VALID,185,VALID,0.472266,
1999-12-16, 01:31:00,VALID,0,VALID,98.8329,VALID,-0.0849042,VALID,16.9108,VALID,181,VALID,0.657278,
1999-12-16, 01:32:01,VALID,0,VALID,99.1203,VALID,-0.101885,VALID,16.9788,VALID,178,VALID,0.761133,
1999-12-16, 01:33:01,VALID,0,VALID,99.3848,VALID,-0.0849042,VALID,17.0786,VALID,176,VALID,0.806949,
1999-12-16, 01:34:00,VALID,0,VALID,99.3517,VALID,-0.101885,VALID,17.1335,VALID,176,VALID,0.684766,
1999-12-16, 01:35:00,VALID,0,VALID,99.1674,VALID,-0.101885,VALID,17.1434,VALID,177,VALID,0.61986,
1999-12-16, 01:36:00,VALID,0,VALID,98.6155,VALID,-0.0509425,VALID,17.0825,VALID,176,VALID,0.387891,
1999-12-16, 01:37:00,VALID,0,VALID,98.2098,VALID,-0.0849042,VALID,17.0273,VALID,173,VALID,0.616365,
1999-12-16, 01:38:00,VALID,0,VALID,98.2124,VALID,-0.0679233,VALID,17.0168,VALID,167,VALID,0.458789,
1999-12-16, 01:39:00,VALID,0,VALID,98.0204,VALID,-0.0849042,VALID,16.9788,VALID,167,VALID,0.379729,
1999-12-16, 01:40:00,VALID,0,VALID,97.9059,VALID,-0.0849042,VALID,16.9457,VALID,167,VALID,0.325977,
1999-12-16, 01:41:00,VALID,0,VALID,97.1226,VALID,-0.0849042,VALID,16.869,VALID,167,VALID,0.192023,
1999-12-16, 01:42:00,VALID,0,VALID,96.4334,VALID,-0.101885,VALID,16.8044,VALID,163,VALID,0.401758,
1999-12-16, 01:43:00,VALID,0,VALID,96.5008,VALID,-0.0849042,VALID,16.7553,VALID,153,VALID,0.420436,
1999-12-16, 01:44:01,VALID,0,VALID,96.5555,VALID,-0.101885,VALID,16.7103,VALID,153,VALID,0.39043,
1999-12-16, 01:45:00,VALID,0,VALID,96.5072,VALID,-0.0679233,VALID,16.6586,VALID,153,VALID,0.264186,
1999-12-16, 01:46:00,VALID,0,VALID,96.7068,VALID,-0.101885,VALID,16.6396,VALID,153,VALID,0,
1999-12-16, 01:47:00,VALID,0,VALID,97.3146,VALID,-0.101885,VALID,16.6394,VALID,153,VALID,0.41324,
1999-12-16, 01:48:00,VALID,0,VALID,98.1196,VALID,-0.0849042,VALID,16.6913,VALID,153,VALID,0.545313,
1999-12-16, 01:49:00,VALID,0,VALID,98.3853,VALID,-0.101885,VALID,16.7111,VALID,154,VALID,0.527961,
1999-12-16, 01:50:00,VALID,0,VALID,98.2861,VALID,-0.0849042,VALID,16.6655,VALID,155,VALID,0.562695,
1999-12-16, 01:51:00,VALID,0,VALID,98.7643,VALID,-0.101885,VALID,16.7072,VALID,160,VALID,0.452303,
1999-12-16, 01:52:00,VALID,0,VALID,98.7757,VALID,-0.118866,VALID,16.7331,VALID,176,VALID,0.211133,
1999-12-16, 01:53:00,VALID,0,VALID,98.7248,VALID,-0.0849042,VALID,16.7365,VALID,194,VALID,0.0869655,
1999-12-16, 01:54:01,VALID,0,VALID,98.4807,VALID,0,VALID,16.6937,VALID,207,VALID,0.0144531,
1999-12-16, 01:55:00,VALID,0,VALID,98.2251,VALID,0,VALID,16.6646,VALID,203,VALID,0,
1999-12-16, 01:56:00,VALID,0,VALID,97.9326,VALID,0,VALID,16.6287,VALID,176,VALID,0.349805,
1999-12-16, 01:57:00,VALID,0,VALID,98.2162,VALID,0,VALID,16.6315,VALID,176,VALID,0.420847,
1999-12-16, 01:58:00,VALID,0,VALID,98.4133,VALID,0,VALID,16.6646,VALID,172,VALID,0.457812,
1999-12-16, 01:59:00,VALID,0,VALID,97.8907,VALID,0,VALID,16.5576,VALID,160,VALID,0.441201,
1999-12-16, 02:00:00,VALID,0,VALID,97.3744,VALID,0,VALID,16.4805,VALID,153,VALID,0.403516,
1999-12-16, 02:01:00,VALID,0,VALID,97.8601,VALID,0,VALID,16.4867,VALID,148,VALID,0.223684,
1999-12-16, 02:02:00,VALID,0,VALID,98.2442,VALID,0,VALID,16.5223,VALID,148,VALID,0,
1999-12-16, 02:03:00,VALID,0,VALID,98.3993,VALID,0,VALID,16.5223,VALID,148,VALID,0,
1999-12-16, 02:04:00,VALID,0,VALID,98.4692,VALID,0,VALID,16.5421,VALID,148,VALID,0,
1999-12-16, 02:05:01,VALID,0,VALID,98.468,VALID,0,VALID,16.5447,VALID,148,VALID,0,
1999-12-16, 02:06:01,VALID,0,VALID,98.4781,VALID,0,VALID,16.5548,VALID,148,VALID,0,
1999-12-16, 02:07:00,VALID,0,VALID,98.4184,VALID,0,VALID,16.5419,VALID,148,VALID,0,
1999-12-16, 02:08:00,VALID,0,VALID,98.3764,VALID,0,VALID,16.5447,VALID,148,VALID,0,
1999-12-16, 02:09:00,VALID,0,VALID,98.281,VALID,-0.0849042,VALID,16.5526,VALID,148,VALID,0,
1999-12-16, 02:10:00,VALID,0,VALID,98.0916,VALID,-0.0849042,VALID,16.5427,VALID,148,VALID,0,
1999-12-16, 02:11:00,VALID,0,VALID,97.9364,VALID,-0.0849042,VALID,16.53,VALID,142,VALID,0.0363898,
1999-12-16, 02:12:00,VALID,0,VALID,97.9441,VALID,-0.0849042,VALID,16.5332,VALID,128,VALID,0.606055,
1999-12-16, 02:13:00,VALID,0,VALID,98.0801,VALID,-0.118866,VALID,16.556,VALID,116,VALID,0.440378,
1999-12-16, 02:14:00,VALID,0,VALID,98.3281,VALID,-0.101885,VALID,16.6077,VALID,115,VALID,0.416992,
1999-12-16, 02:15:00,VALID,0,VALID,98.3395,VALID,-0.101885,VALID,16.6652,VALID,114,VALID,0.181743,
1999-12-16, 02:16:01,VALID,0,VALID,98.3179,VALID,-0.101885,VALID,16.7434,VALID,114,VALID,0.289063,
1999-12-16, 02:17:01,VALID,0,VALID,97.986,VALID,-0.101885,VALID,16.7886,VALID,114,VALID,0.220806,
1999-12-16, 02:18:00,VALID,0,VALID,97.4291,VALID,-0.0849042,VALID,16.8173,VALID,114,VALID,0.182617,
1999-12-16, 02:19:00,VALID,0,VALID,97.0819,VALID,-0.0849042,VALID,16.8332,VALID,114,VALID,0.20991,
1999-12-16, 02:20:00,VALID,0,VALID,96.8479,VALID,-0.0849042,VALID,16.8431,VALID,121,VALID,0,
1999-12-16, 02:21:00,VALID,0,VALID,96.8645,VALID,-0.0849042,VALID,16.8692,VALID,145,VALID,0.147204,
1999-12-16, 02:22:00,VALID,0,VALID,96.1969,VALID,-0.101885,VALID,16.9597,VALID,142,VALID,0.6252,
1999-12-16, 02:23:00,VALID,0,VALID,95.8459,VALID,-0.101885,VALID,17.0176,VALID,137,VALID,0.679276,
1999-12-16, 02:24:00,VALID,0,VALID,95.0372,VALID,0.0169808,VALID,17.1066,VALID,130,VALID,0.773828,
1999-12-16, 02:25:00,VALID,0,VALID,94.6633,VALID,0,VALID,17.1264,VALID,129,VALID,0.780222,
1999-12-16, 02:26:00,VALID,0,VALID,94.7638,VALID,0,VALID,17.1331,VALID,134,VALID,0.68418,
1999-12-16, 02:27:00,VALID,0,VALID,94.5641,VALID,0,VALID,17.1852,VALID,140,VALID,0.541941,
1999-12-16, 02:28:01,VALID,0,VALID,94.053,VALID,0.0169808,VALID,17.2464,VALID,151,VALID,0.427344,
1999-12-16, 02:29:00,VALID,0,VALID,93.6613,VALID,0.0339617,VALID,17.2851,VALID,161,VALID,0.437911,
1999-12-16, 02:30:00,VALID,0,VALID,93.6931,VALID,0,VALID,17.2819,VALID,166,VALID,0.456836,
1999-12-16, 02:31:00,VALID,0,VALID,93.8088,VALID,0,VALID,17.2459,VALID,175,VALID,0.520765,
1999-12-16, 02:32:00,VALID,0,VALID,93.9309,VALID,0,VALID,17.2039,VALID,177,VALID,0.520898,
1999-12-16, 02:33:00,VALID,0,VALID,94.0186,VALID,-0.0169808,VALID,17.1331,VALID,177,VALID,0.457442,
1999-12-16, 02:34:00,VALID,0,VALID,94.3938,VALID,0,VALID,17.0557,VALID,177,VALID,0.21582,
1999-12-16, 02:35:00,VALID,0,VALID,94.8477,VALID,0,VALID,16.9913,VALID,186,VALID,0.287623,
1999-12-16, 02:36:00,VALID,0,VALID,95.3589,VALID,0,VALID,16.9328,VALID,195,VALID,0.371289,
1999-12-16, 02:37:00,VALID,0,VALID,95.8243,VALID,0,VALID,16.8772,VALID,203,VALID,0.460732,
1999-12-16, 02:38:01,VALID,0,VALID,95.996,VALID,0,VALID,16.8516,VALID,213,VALID,0.529883,
1999-12-16, 02:39:00,VALID,0,VALID,96.3164,VALID,0.0169808,VALID,16.8615,VALID,213,VALID,0.424548,
1999-12-16, 02:40:00,VALID,0,VALID,95.9298,VALID,0,VALID,16.9037,VALID,212,VALID,0.0753906,
1999-12-16, 02:41:00,VALID,0,VALID,95.3996,VALID,0,VALID,16.9711,VALID,210,VALID,0.0304276,
1999-12-16, 02:42:00,VALID,0,VALID,94.9825,VALID,0,VALID,17.0258,VALID,210,VALID,0,
1999-12-16, 02:43:00,VALID,0,VALID,94.6328,VALID,0,VALID,17.0422,VALID,184,VALID,0.406456,
1999-12-16, 02:44:00,VALID,0,VALID,95.3093,VALID,0,VALID,16.9974,VALID,174,VALID,0.55293,
1999-12-16, 02:45:00,VALID,0,VALID,95.6971,VALID,0,VALID,16.9259,VALID,166,VALID,0.558594,
1999-12-16, 02:46:00,VALID,0,VALID,95.4594,VALID,0,VALID,16.8875,VALID,157,VALID,0.479688,
1999-12-16, 02:47:00,VALID,0,VALID,95.1059,VALID,0.0169808,VALID,16.9035,VALID,157,VALID,0.396176,
1999-12-16, 02:48:00,VALID,0,VALID,94.7167,VALID,0.0169808,VALID,16.9328,VALID,158,VALID,0,
1999-12-16, 02:49:01,VALID,0,VALID,94.6544,VALID,0,VALID,16.9717,VALID,167,VALID,0,
1999-12-16, 02:50:01,VALID,0,VALID,94.9151,VALID,0.0169808,VALID,16.9644,VALID,168,VALID,0,
1999-12-16, 02:51:00,VALID,0,VALID,94.9037,VALID,0,VALID,16.9487,VALID,169,VALID,0,
1999-12-16, 02:52:00,VALID,0,VALID,94.9571,VALID,0,VALID,16.9259,VALID,164,VALID,0,
1999-12-16, 02:53:00,VALID,0,VALID,95.1758,VALID,0,VALID,16.8744,VALID,156,VALID,0,
1999-12-16, 02:54:00,VALID,0,VALID,95.0893,VALID,-0.101885,VALID,16.7813,VALID,147,VALID,0,
1999-12-16, 02:55:00,VALID,0,VALID,95.1771,VALID,-0.0849042,VALID,16.7266,VALID,153,VALID,0,
1999-12-16, 02:56:00,VALID,0,VALID,95.5891,VALID,-0.0849042,VALID,16.6788,VALID,154,VALID,0,
1999-12-16, 02:57:00,VALID,0,VALID,95.9438,VALID,-0.101885,VALID,16.6202,VALID,154,VALID,0,
1999-12-16, 02:58:00,VALID,0,VALID,95.8663,VALID,-0.101885,VALID,16.5843,VALID,154,VALID,0,
1999-12-16, 02:59:00,VALID,0,VALID,96.1473,VALID,-0.101885,VALID,16.5653,VALID,154,VALID,0,
1999-12-16, 03:00:01,VALID,0,VALID,96.338,VALID,-0.0849042,VALID,16.536,VALID,166,VALID,0,
1999-12-16, 03:01:01,VALID,0,VALID,96.5008,VALID,-0.0849042,VALID,16.4944,VALID,180,VALID,0,
1999-12-16, 03:02:00,VALID,0,VALID,96.736,VALID,-0.101885,VALID,16.4716,VALID,180,VALID,0,
1999-12-16, 03:03:00,VALID,0,VALID,96.8479,VALID,-0.118866,VALID,16.4522,VALID,180,VALID,0,
1999-12-16, 03:04:00,VALID,0,VALID,97.0183,VALID,-0.101885,VALID,16.4527,VALID,180,VALID,0,
1999-12-16, 03:05:00,VALID,0,VALID,97.0272,VALID,-0.0849042,VALID,16.4458,VALID,180,VALID,0,
1999-12-16, 03:06:00,VALID,0,VALID,96.7208,VALID,-0.101885,VALID,16.5039,VALID,180,VALID,0,
1999-12-16, 03:07:00,VALID,0,VALID,96.2236,VALID,-0.0849042,VALID,16.5647,VALID,180,VALID,0,
1999-12-16, 03:08:00,VALID,0,VALID,95.7556,VALID,-0.101885,VALID,16.62,VALID,180,VALID,0,
1999-12-16, 03:09:00,VALID,0,VALID,95.5128,VALID,0,VALID,16.6412,VALID,180,VALID,0,
1999-12-16, 03:10:00,VALID,0,VALID,95.411,VALID,0,VALID,16.6612,VALID,180,VALID,0,
1999-12-16, 03:11:00,VALID,0,VALID,95.1504,VALID,0.0169808,VALID,16.6707,VALID,180,VALID,0,
1999-12-16, 03:12:01,VALID,0,VALID,94.8528,VALID,0,VALID,16.6967,VALID,180,VALID,0,
1999-12-16, 03:13:00,VALID,0,VALID,94.7879,VALID,0,VALID,16.6905,VALID,197,VALID,0,
1999-12-16, 03:14:00,VALID,0,VALID,95.0257,VALID,0,VALID,16.6997,VALID,259,VALID,0,
1999-12-16, 03:15:00,VALID,0,VALID,95.2101,VALID,-0.0169808,VALID,16.7189,VALID,260,VALID,0,
1999-12-16, 03:16:00,VALID,0,VALID,94.9749,VALID,0,VALID,16.7484,VALID,260,VALID,0,
1999-12-16, 03:17:00,VALID,0,VALID,95.0054,VALID,0,VALID,16.7648,VALID,256,VALID,0,
1999-12-16, 03:18:00,VALID,0,VALID,94.9672,VALID,0,VALID,16.7611,VALID,247,VALID,0,
1999-12-16, 03:19:00,VALID,0,VALID,94.6493,VALID,0.0169808,VALID,16.7747,VALID,233,VALID,0,
1999-12-16, 03:20:00,VALID,0,VALID,94.3772,VALID,-0.0169808,VALID,16.7579,VALID,188,VALID,0,
1999-12-16, 03:21:00,VALID,0,VALID,94.4726,VALID,-0.0169808,VALID,16.7228,VALID,173,VALID,0,
1999-12-16, 03:22:01,VALID,0,VALID,94.2844,VALID,-0.0169808,VALID,16.6384,VALID,164,VALID,0,
1999-12-16, 03:23:01,VALID,0,VALID,94.5438,VALID,-0.0169808,VALID,16.5578,VALID,164,VALID,0,
1999-12-16, 03:24:00,VALID,0,VALID,94.9647,VALID,0,VALID,16.4766,VALID,162,VALID,0,
1999-12-16, 03:25:00,VALID,0,VALID,95.1275,VALID,0,VALID,16.4187,VALID,161,VALID,0,
1999-12-16, 03:26:00,VALID,0,VALID,95.3958,VALID,0,VALID,16.3864,VALID,162,VALID,0,
1999-12-16, 03:27:00,VALID,0,VALID,95.6882,VALID,0,VALID,16.3509,VALID,180,VALID,0,
1999-12-16, 03:28:00,VALID,0,VALID,95.8548,VALID,0,VALID,16.3089,VALID,187,VALID,0,
1999-12-16, 03:29:00,VALID,0,VALID,96.0735,VALID,-0.0169808,VALID,16.2895,VALID,187,VALID,0,
1999-12-16, 03:30:00,VALID,0,VALID,96.2376,VALID,0,VALID,16.2665,VALID,186,VALID,0,
1999-12-16, 03:31:00,VALID,0,VALID,96.3686,VALID,0,VALID,16.2641,VALID,177,VALID,0,
1999-12-16, 03:32:00,VALID,0,VALID,96.3775,VALID,0,VALID,16.2703,VALID,167,VALID,0,
1999-12-16, 03:33:01,VALID,0,VALID,96.1778,VALID,0,VALID,16.2959,VALID,158,VALID,0,
1999-12-16, 03:34:01,VALID,0,VALID,95.912,VALID,0,VALID,16.325,VALID,155,VALID,0,
1999-12-16, 03:35:00,VALID,0,VALID,95.8281,VALID,0,VALID,16.3192,VALID,155,VALID,0,
1999-12-16, 03:36:00,VALID,0,VALID,95.9286,VALID,0,VALID,16.2957,VALID,155,VALID,0,
1999-12-16, 03:37:00,VALID,0,VALID,95.9667,VALID,0,VALID,16.299,VALID,155,VALID,0,
1999-12-16, 03:38:00,VALID,0,VALID,95.9057,VALID,0,VALID,16.3123,VALID,155,VALID,0,
1999-12-16, 03:39:00,VALID,0,VALID,96.015,VALID,0,VALID,16.3444,VALID,155,VALID,0,
1999-12-16, 03:40:00,VALID,0,VALID,95.9502,VALID,0,VALID,16.4064,VALID,155,VALID,0,
1999-12-16, 03:41:00,VALID,0,VALID,95.6539,VALID,0,VALID,16.4676,VALID,155,VALID,0,
1999-12-16, 03:42:00,VALID,0,VALID,95.4034,VALID,0,VALID,16.5093,VALID,155,VALID,0,
1999-12-16, 03:43:00,VALID,0,VALID,95.453,VALID,-0.0339617,VALID,16.5481,VALID,155,VALID,0,
1999-12-16, 03:44:01,VALID,0,VALID,94.8948,VALID,0,VALID,16.6355,VALID,155,VALID,0,
1999-12-16, 03:45:01,VALID,0,VALID,94.1178,VALID,0.0169808,VALID,16.7456,VALID,155,VALID,0,
1999-12-16, 03:46:00,VALID,0,VALID,93.2811,VALID,0,VALID,16.8326,VALID,155,VALID,0,
1999-12-16, 03:47:00,VALID,0,VALID,92.3592,VALID,0.0339617,VALID,16.9097,VALID,155,VALID,0,
1999-12-16, 03:48:00,VALID,0,VALID,91.9739,VALID,0.0169808,VALID,17.0069,VALID,155,VALID,0,
1999-12-16, 03:49:00,VALID,0,VALID,91.5187,VALID,0,VALID,17.0713,VALID,155,VALID,0,
1999-12-16, 03:50:00,VALID,0,VALID,91.4614,VALID,0.0169808,VALID,17.1464,VALID,155,VALID,0,
1999-12-16, 03:51:00,VALID,0,VALID,91.4703,VALID,0,VALID,17.1621,VALID,155,VALID,0,
1999-12-16, 03:52:00,VALID,0,VALID,90.8104,VALID,0.0339617,VALID,17.1488,VALID,155,VALID,0,
1999-12-16, 03:53:00,VALID,0,VALID,90.4505,VALID,0,VALID,17.2138,VALID,155,VALID,0,
1999-12-16, 03:54:00,VALID,0,VALID,90.4734,VALID,0,VALID,17.2395,VALID,155,VALID,0,
1999-12-16, 03:55:00,VALID,0,VALID,90.57,VALID,0,VALID,17.2268,VALID,155,VALID,0,
1999-12-16, 03:56:01,VALID,0,VALID,90.8561,VALID,0,VALID,17.2203,VALID,155,VALID,0,
1999-12-16, 03:57:00,VALID,0,VALID,91.1893,VALID,0,VALID,17.1561,VALID,155,VALID,0,
1999-12-16, 03:58:00,VALID,0,VALID,91.5746,VALID,0.0169808,VALID,17.0232,VALID,134,VALID,0,
1999-12-16, 03:59:00,VALID,0,VALID,92.5347,VALID,0,VALID,16.8647,VALID,126,VALID,0,
1999-12-16, 04:00:00,VALID,0,VALID,92.9657,VALID,0.0169808,VALID,16.7837,VALID,125,VALID,0,
1999-12-16, 04:01:00,VALID,0,VALID,92.8259,VALID,0,VALID,16.7971,VALID,119,VALID,0,
1999-12-16, 04:02:00,VALID,0,VALID,92.7432,VALID,0,VALID,16.8158,VALID,118,VALID,0,
1999-12-16, 04:03:00,VALID,0,VALID,92.5258,VALID,0.0339617,VALID,16.8714,VALID,109,VALID,0,
1999-12-16, 04:04:00,VALID,0,VALID,92.4495,VALID,0.0169808,VALID,16.9231,VALID,103,VALID,0,
1999-12-16, 04:05:00,VALID,0,VALID,92.3922,VALID,0,VALID,16.9235,VALID,92,VALID,0,
1999-12-16, 04:06:01,VALID,0,VALID,92.2269,VALID,-0.0169808,VALID,16.9717,VALID,96,VALID,0,
1999-12-16, 04:07:01,VALID,0,VALID,92.1125,VALID,0,VALID,16.9549,VALID,99,VALID,0,
1999-12-16, 04:08:00,VALID,0,VALID,92.115,VALID,0,VALID,16.9715,VALID,98,VALID,0,
1999-12-16, 04:09:00,VALID,0,VALID,92.1023,VALID,0,VALID,16.9907,VALID,102,VALID,0,
1999-12-16, 04:10:00,VALID,0,VALID,92.2282,VALID,0,VALID,17.0168,VALID,105,VALID,0,
1999-12-16, 04:11:00,VALID,0,VALID,92.2816,VALID,0,VALID,17.0585,VALID,100,VALID,0,
1999-12-16, 04:12:00,VALID,0,VALID,92.143,VALID,0.0169808,VALID,17.0747,VALID,121,VALID,0,
1999-12-16, 04:13:00,VALID,0,VALID,92.1328,VALID,0,VALID,17.0971,VALID,123,VALID,0,
1999-12-16, 04:14:00,VALID,0,VALID,92.157,VALID,-0.0169808,VALID,17.107,VALID,123,VALID,0,